Tracking 29487 objects as of 11-Sep-2024
HD Live streaming from Space Station
objects crossing your sky now

TITAN 3C TRANSTAGE DEB

Track TITAN 3C TRANSTAGE DEB now!
10-day predictions


NORAD ID: 1680
Int'l Code: 1965-082AT
Perigee: 670.3 km
Apogee: 699.7 km
Inclination: 32.3 °
Period: 98.3 minutes
Semi major axis: 7055 km
RCS: 2.2194 m2 (large)
Launch date: October 15, 1965
Source: United States (US)
Launch site: AIR FORCE EASTERN TEST RANGE (AFETR)

Note: This is SATELLITE DEBRIS
Your satellite tracking list
Your tracking list is empty




NASA's NSSDC Master Catalog

Two Line Element Set (TLE):
1 01680U 65082AT  24254.75923446  .00002103  00000-0  38022-3 0  9997
2 01680  32.2564  29.8128 0020840 172.0125 188.0857 14.64757353119060
Source of the keplerian elements: AFSPC